Weather History for Madison, WI

Change the Weather History Date:

Friday, July 5, 2013

  Actual Average Record
Temperature  
Mean Temperature 76 °F 71 °F  
Max Temperature 84 °F 82 °F 104 °F (2012)
Min Temperature 67 °F 61 °F 40 °F (1972)
Degree Days  
Heating Degree Days 0 0  
Month to date heating degree days 2 0  
Since 1 June heating degree days 54 60  
Since 1 July heating degree days 2 0  
Cooling Degree Days 11 7  
Month to date cooling degree days 19 33  
Year to date cooling degree days 209 183  
Since 1 June cooling degree days 156 153  
Growing Degree Days 25 (Base 50)    
Moisture  
Dew Point 62 °F    
Average Humidity 63    
Maximum Humidity 81    
Minimum Humidity 44    
Precipitation  
Precipitation 0.00 in 0.14 in 3.75 in (1993)
Month to date precipitation 0.00 0.69  
Year to date precipitation 30.95 17.06  
Snow  
Snow 0.00 in 0.00 in 0.00 in ()
Month to date snowfall 0.0 0.0  
Since 1 June snowfall 0.0 0.0  
Since 1 July snowfall 0.0 0.0  
Snow Depth 0.00 in    
Sea Level Pressure  
Sea Level Pressure 30.01 in    
Wind  
Wind Speed 8 mph (South)    
Max Wind Speed 17 mph    
Max Gust Speed 23 mph    
Visibility 10 miles    
Events      
T = Trace of Precipitation, MM = Missing Value Source: NWS Daily Summary

Daily Weather History Graph

Daily Weather History Graph

Search for Another Location

Airport:

Trip Planner

Search our weather history database for the weather conditions in past years. The results will help you decide how hot, cold, wet, or windy it might be!

Date:

Astronomy

Jul. 05, 2013 Rise Set
Actual Time 5:24 AM CDT 8:39 PM CDT
Civil Twilight 4:49 AM CDT 9:14 PM CDT
Nautical Twilight 4:03 AM CDT 9:59 PM CDT
Astronomical Twilight 3:08 AM CDT 10:55 PM CDT
Moon 3:24 AM CDT (7/5) 6:33 PM CDT (7/5)
Length of Visible Light 16h 25m
Length of Day
15h 15m
Waning Crescent, 6% of the Moon is Illuminated
Jul 5
Waning Crescent
Jul 8
New
Jul 15
First Quarter
Jul 22
Full
Jul 29
Last Quarter

Hourly Weather History & Observations

Time (CDT) Temp. Heat Index Dew Point Humidity Pressure Visibility Wind Dir Wind Speed Gust Speed Precip Events Conditions
12:53 AM 70.0 °F - 63.0 °F 78% 30.02 in 10.0 mi South 8.1 mph - N/A   Clear
1:53 AM 69.1 °F - 63.0 °F 81% 30.02 in 10.0 mi South 6.9 mph - N/A   Clear
2:53 AM 69.1 °F - 62.1 °F 78% 30.02 in 10.0 mi South 8.1 mph - N/A   Partly Cloudy
3:53 AM 68.0 °F - 62.1 °F 81% 30.01 in 10.0 mi South 5.8 mph - N/A   Clear
4:53 AM 66.9 °F - 60.1 °F 79% 30.02 in 9.0 mi Calm Calm - N/A   Clear
5:53 AM 68.0 °F - 60.1 °F 76% 30.03 in 10.0 mi SSW 4.6 mph - N/A   Clear
6:53 AM 68.0 °F - 60.1 °F 76% 30.04 in 10.0 mi South 9.2 mph - N/A   Clear
7:53 AM 71.1 °F - 61.0 °F 70% 30.05 in 10.0 mi South 5.8 mph - N/A   Clear
8:53 AM 73.9 °F - 61.0 °F 64% 30.05 in 10.0 mi SSW 4.6 mph - N/A   Clear
9:53 AM 77.0 °F - 62.1 °F 60% 30.04 in 10.0 mi South 6.9 mph - N/A   Clear
10:53 AM 79.0 °F - 64.0 °F 60% 30.04 in 10.0 mi South 9.2 mph - N/A   Clear
11:53 AM 81.0 °F 82.2 °F 63.0 °F 54% 30.04 in 10.0 mi SW 6.9 mph - N/A   Scattered Clouds
12:53 PM 82.9 °F 83.7 °F 62.1 °F 49% 30.02 in 10.0 mi South 11.5 mph - N/A   Mostly Cloudy
1:53 PM 82.9 °F 83.7 °F 62.1 °F 49% 30.01 in 10.0 mi South 16.1 mph 20.7 mph N/A   Scattered Clouds
2:53 PM 84.0 °F 84.4 °F 61.0 °F 46% 30.00 in 10.0 mi SSW 11.5 mph 23.0 mph N/A   Scattered Clouds
3:53 PM 84.0 °F 84.4 °F 61.0 °F 46% 29.99 in 10.0 mi South 15.0 mph 19.6 mph N/A   Scattered Clouds
4:53 PM 84.0 °F 84.4 °F 61.0 °F 46% 29.99 in 10.0 mi SW 8.1 mph 17.3 mph N/A   Scattered Clouds
5:53 PM 82.9 °F 83.2 °F 60.1 °F 46% 29.98 in 10.0 mi SSW 10.4 mph 21.9 mph N/A   Partly Cloudy
6:53 PM 81.0 °F 81.9 °F 62.1 °F 52% 29.98 in 10.0 mi South 11.5 mph - N/A   Partly Cloudy
7:53 PM 80.1 °F 81.2 °F 62.1 °F 54% 29.98 in 10.0 mi South 8.1 mph - N/A   Partly Cloudy
8:53 PM 77.0 °F - 62.1 °F 60% 29.99 in 10.0 mi South 5.8 mph - N/A   Clear
9:53 PM 75.9 °F - 62.1 °F 62% 30.00 in 10.0 mi South 4.6 mph - N/A   Clear
10:53 PM 73.9 °F - 62.1 °F 66% 30.00 in 10.0 mi South 5.8 mph - N/A   Clear
11:53 PM 73.0 °F - 61.0 °F 66% 30.00 in 10.0 mi South 8.1 mph - N/A   Clear